THOR ABLESTAR DEB, 130

Orbit data source: Space-Track

THOR ABLESTAR DEB, 130 is space debris in LEO originally from a launch on Thu, 29 Jun 1961 UTC launched from the Air Force Eastern Test Range (AFETR). Debris objects in space refer to the collection of defunct objects orbiting the Earth. Examples of debris include non-operational satellites, rocket bodies, and fragments generated from explosions, collisions, or faulty payload assembly.

Loading next visibility...
Identifier
130, 1961-015Q
Orbit
LEO
Country
Flag of USUS
Related business
Manufacturer
Unknown
Mission
Spacecraft
Bus & Motor
Unknown
Mass
Unknown
Launch date (UTC)
1961-06-29 (64 years ago)
Launch vehicle
Unknown
Launch site
Air Force Eastern Test Range (AFETR)
Object type
Payload
Rocket body
Debris
Shape & HBR
Unknown
Radar Cross Section
0.490 m², Medium (>0.1 m² and < 1m²)

Expand to show TLE details & history
Last TLE update: 17 hours ago

TLE from 17 hours ago
0 THOR ABLESTAR DEB
1 00130U 61015Q   25258.58799186  .00000047  00000-0  83775-4 0  9997
2 00130  66.7702 212.7343 0079661 125.6680 235.1853 13.99336199273038
Epoch: 2025-09-15T14:06Z
TLE epoch observation values (Epoch: 2025-09-15T14:06:42.496Z)
Latitude
-0.00005°
Longitude
6.26672°
Altitude
931.574 km
Speed
7.37 km/s
True Right ascension
14h 10m 56s
True Declination
0° 00' 00"
Sunlit
Object was in daylight at epoch
Visualization orbit readout
Latitude
Unknown
Longitude
Unknown
Altitude
Unknown
Speed
Unknown
Apparent Right ascension
Unknown
Apparent Declination
Unknown
Sunlit
N/A
Visualization observer readout
Local Sidereal Time
00:01:45
Azimuth
Unknown
Elevation
Unknown
Doppler factor
Unknown
Orbital elements
Apogee altitude
952.419 km
Perigee altitude
836.55 km
Semi-major axis
7,272.622 km
Eccentricity
0.00797
Inclination
66.7702°
RAAN
212.7343°
Arg. of periapsis
125.668°
True anomaly
234.44011°
Mean anomaly
235.1853°
Eccentric anomaly
234.81228°
Mean motion
3.49951 °/min
Orbital period
102.87 mins
BSTAR
0.000083775
Loading maneuver chart data...
Computing Atmospheric mass density...

Documentation

Showing up to 5 results
|